Tutti
Bath Community Hospital Airport (Hot Springs, VA) 47VG Meteo
There is no TAF data available at 47VG or any nearby airports.
There is no METAR data available at 47VG. Showing METAR data for KHSP (3 mi S).
Storico METAR HSP recente (nessun dato per 47VG)
| Date | Time (EDT) | Flight Rules | Wind Dir. | Speed | Type | Height AGL (ft) | Visibility | Temp (°C) | Temp (°F) | Dew Point (°C) | Dew Point (°F) | Rel. Humid. | Pressure | Density Altitude | Remarks |
|---|---|---|---|---|---|---|---|---|---|---|---|---|---|---|---|
| 30-ago | 23:55 | VFR | Calm | 10 miles | 21° | 69° | 18° | 64° | 83% | 30.30 in Hg | 4.845 ft | ||||
| 30-ago | 23:35 | VFR | Calm | 10 miles | 20° | 68° | 18° | 64° | 90% | 30.30 in Hg | 4.725 ft | ||||
| 30-ago | 23:15 | VFR | Calm | 10 miles | 20° | 68° | 18° | 64° | 88% | 30.30 in Hg | 4.725 ft | ||||
| 30-ago | 22:55 | VFR | Calm | 10 miles | 21° | 69° | 18° | 64° | 86% | 30.30 in Hg | 4.845 ft | ||||
| 30-ago | 22:35 | VFR | Calm | 10 miles | 20° | 68° | 17° | 62° | 87% | 30.30 in Hg | 4.725 ft | ||||
| 30-ago | 22:15 | VFR | Calm | 10 miles | 21° | 69° | 18° | 64° | 80% | 30.31 in Hg | 4.835 ft | ||||
| 30-ago | 21:55 | VFR | 290° | 3 kt | 10 miles | 21° | 69° | 17° | 62° | 80% | 30.31 in Hg | 4.835 ft | |||
| 30-ago | 21:35 | VFR | Calm | 10 miles | 21° | 69° | 18° | 64° | 81% | 30.30 in Hg | 4.845 ft | ||||
| 30-ago | 21:15 | VFR | 200° | 3 kt | 10 miles | 21° | 69° | 18° | 64° | 84% | 30.30 in Hg | 4.845 ft | |||
| 30-ago | 20:55 | VFR | 220° | 4 kt | 10 miles | 21° | 69° | 18° | 64° | 85% | 30.30 in Hg | 4.845 ft | |||
| 30-ago | 20:15 | VFR | 210° | 4 kt | 10 miles | 21° | 69° | 17° | 62° | 74% | 30.29 in Hg | 4.855 ft | |||
| 30-ago | 19:55 | VFR | 210° | 4 kt | 10 miles | 22° | 71° | 17° | 62° | 74% | 30.28 in Hg | 4.985 ft | |||
| 30-ago | 19:35 | VFR | 220° | 5 kt | 10 miles |
21° | 69° | 17° | 62° | 77% | 30.28 in Hg | 4.865 ft | |||
| 30-ago | 19:15 | VFR | 220° | 5 kt | 7 miles | 22° | 71° | 17° | 62° | 77% | 30.27 in Hg | 4.995 ft | |||
| 30-ago | 18:55 | VFR | 250° | 7 kt | 7 miles |
23° | 73° | 18° | 64° | 73% | 30.27 in Hg | 5.115 ft | |||
| 30-ago | 18:35 | VFR | 260° | 6 kt | 10 miles | 23° | 73° | 17° | 62° | 68% | 30.27 in Hg | 5.115 ft | |||
| 30-ago | 18:15 | VFR | 250° | 7 kt | 10 miles | 24° | 75° | 18° | 64° | 67% | 30.27 in Hg | 5.235 ft | |||
| 30-ago | 17:55 | VFR | 240° | 8 kt | 10 miles | 24° | 75° | 19° | 66° | 73% | 30.27 in Hg | 5.235 ft | |||
| 30-ago | 17:15 | VFR | 220° | 7 kt | 10 miles | 24° | 75° | 18° | 64° | 70% | 30.27 in Hg | 5.235 ft | |||
| 30-ago | 16:55 | VFR | 250° | 6 kt | 10 miles | 24° | 75° | 18° | 64° | 73% | 30.28 in Hg | 5.225 ft | |||
| 30-ago | 16:35 | VFR | 240° | 6 kt | 10 miles | 25° | 77° | 18° | 64° | 67% | 30.28 in Hg | 5.345 ft | |||
| 30-ago | 16:15 | VFR | 260° | 8 kt | 10 miles | 25° | 77° | 18° | 64° | 68% | 30.28 in Hg | 5.345 ft | |||
| 30-ago | 15:55 | VFR | 270° | 7 kt | 10 miles | 24° | 75° | 18° | 64° | 69% | 30.29 in Hg | 5.215 ft | |||
| 30-ago | 15:35 | VFR | 250° | 6 kt | 10 miles | 25° | 77° | 18° | 64° | 69% | 30.29 in Hg | 5.335 ft |
Accedi
| Il tuo browser non è supportato. fai l'upgrade del tuo browser |
